Monticello, AR

11:28 PM CDT on May 20, 2018 (GMT -0500)
Monticello Municipal-Ellis

Weather History for KLLQ - February, 2014

Change the Weather History Date:

Monday, February 3, 2014

  Actual Average Record
Temperature  
Mean Temperature 33 °F -  
Max Temperature 36 °F 53 °F 78 °F (1974)
Min Temperature 30 °F 30 °F 4 °F (1985)
Degree Days  
Heating Degree Days 32    
Moisture  
Dew Point 28 °F    
Average Humidity 84    
Maximum Humidity 93    
Minimum Humidity 75    
Precipitation  
Precipitation 0.00 in - - ()
Sea Level Pressure  
Sea Level Pressure 30.23 in    
Wind  
Wind Speed 8 mph (NE)    
Max Wind Speed 13 mph    
Max Gust Speed 21 mph    
Visibility 9 miles    
Events      
Averages and records for this station are not official NWS values.
T = Trace of Precipitation, MM = Missing Value Source: NWS Daily Summary

Daily Weather History Graph

Daily Weather History Graph

Search for Another Location

Airport or City:

Astronomy

Feb. 03, 2014 Rise Set
Actual Time 7:01 AM CST 5:40 PM CST
Civil Twilight 6:35 AM CST 6:06 PM CST
Nautical Twilight 6:06 AM CST 6:35 PM CST
Astronomical Twilight 5:36 AM CST 7:05 PM CST
Moon 9:19 AM CST (2/3) 10:14 PM CST (2/3)
Length of Visible Light 11h 30m
Length of Day
10h 38m
Waxing Crescent, 20% of the Moon is Illuminated
Feb 3
Waxing Crescent
Feb 6
First Quarter
Feb 14
Full
Feb 22
Last Quarter
Mar 1
New

Hourly Weather History & Observations

Time (CST) Temp. Windchill Dew Point Humidity Pressure Visibility Wind Dir Wind Speed Gust Speed Precip Events Conditions
12:25 AM 32.0 °F 23.6 °F 28.4 °F 87% 30.19 in 10.0 mi North 10.4 mph 20.7 mph N/A   Overcast
12:53 AM 32.0 °F 27.5 °F 28.0 °F 85% 30.19 in 10.0 mi Variable 4.6 mph - N/A   Overcast
1:53 AM 32.0 °F 26.4 °F 28.0 °F 85% 30.21 in 10.0 mi North 5.8 mph - N/A   Overcast
2:43 AM 32.0 °F 26.4 °F 28.4 °F 87% 30.21 in 10.0 mi NNE 5.8 mph - N/A   Overcast
2:53 AM 32.0 °F 27.5 °F 28.0 °F 85% 30.22 in 10.0 mi NNE 4.6 mph - N/A   Overcast
3:08 AM 32.0 °F 24.8 °F 28.4 °F 87% 30.21 in 10.0 mi North 8.1 mph - N/A   Overcast
3:53 AM 32.0 °F 24.8 °F 27.0 °F 82% 30.22 in 10.0 mi North 8.1 mph - N/A   Overcast
4:53 AM 30.9 °F 25.2 °F 27.0 °F 85% 30.24 in 10.0 mi North 5.8 mph - N/A   Overcast
5:13 AM 30.2 °F 23.4 °F 26.6 °F 86% 30.23 in 10.0 mi North 6.9 mph 17.3 mph N/A   Overcast
5:53 AM 30.0 °F 23.2 °F 26.1 °F 85% 30.26 in 10.0 mi Variable 6.9 mph - N/A   Overcast
6:31 AM 30.2 °F 25.4 °F 26.6 °F 86% 30.26 in 10.0 mi Variable 4.6 mph - N/A   Overcast
6:53 AM 30.0 °F 23.2 °F 26.1 °F 85% 30.27 in 10.0 mi NNE 6.9 mph - N/A   Overcast
7:53 AM 30.0 °F 21.7 °F 25.0 °F 82% 30.29 in 10.0 mi North 9.2 mph - N/A   Overcast
8:53 AM 30.0 °F 22.4 °F 25.0 °F 82% 30.29 in 10.0 mi NNE 8.1 mph - N/A   Overcast
9:53 AM 30.9 °F 23.5 °F 25.0 °F 79% 30.31 in 10.0 mi NNE 8.1 mph - N/A   Overcast
10:53 AM 33.1 °F 27.7 °F 27.0 °F 78% 30.29 in 10.0 mi Variable 5.8 mph - N/A   Overcast
11:31 AM 35.6 °F 28.6 °F 28.4 °F 75% 30.28 in 10.0 mi NE 9.2 mph - N/A   Mostly Cloudy
11:53 AM 35.1 °F 27.9 °F 28.0 °F 76% 30.28 in 10.0 mi NE 9.2 mph - N/A   Overcast
12:53 PM 36.0 °F 29.0 °F 28.9 °F 76% 30.25 in 10.0 mi NE 9.2 mph 16.1 mph N/A   Overcast
1:53 PM 36.0 °F 29.6 °F 30.0 °F 79% 30.24 in 10.0 mi NE 8.1 mph - N/A   Overcast
2:53 PM 35.1 °F 31.0 °F 28.0 °F 76% 30.24 in 10.0 mi NNE 4.6 mph - N/A   Overcast
3:28 PM 35.6 °F 31.7 °F 28.4 °F 75% 30.23 in 10.0 mi Variable 4.6 mph - N/A   Overcast
3:53 PM 35.1 °F 28.6 °F 28.9 °F 78% 30.25 in 10.0 mi NNE 8.1 mph - N/A   Overcast
4:53 PM 33.1 °F 26.1 °F 28.0 °F 82% 30.24 in 10.0 mi NNE 8.1 mph - N/A   Overcast
5:53 PM 32.0 °F 25.6 °F 28.0 °F 85% 30.23 in 10.0 mi NNE 6.9 mph - N/A   Overcast
6:24 PM 32.0 °F 25.6 °F 28.4 °F 87% 30.23 in 10.0 mi NNE 6.9 mph - N/A   Overcast
6:53 PM 32.0 °F 22.5 °F 28.0 °F 85% 30.23 in 10.0 mi NE 12.7 mph - N/A   Overcast
7:53 PM 32.0 °F 23.6 °F 28.0 °F 85% 30.21 in 10.0 mi ENE 10.4 mph - N/A   Overcast
8:53 PM 30.9 °F 21.7 °F 28.0 °F 89% 30.22 in 8.0 mi East 11.5 mph - N/A   Overcast
9:16 PM 30.2 °F 21.9 °F 28.4 °F 93% 30.22 in 6.0 mi ENE 9.2 mph - N/A   Overcast
9:53 PM 30.0 °F 21.1 °F 28.0 °F 92% 30.21 in 6.0 mi ENE 10.4 mph - N/A   Overcast
10:53 PM 30.0 °F 21.1 °F 28.0 °F 92% 30.19 in 4.0 mi ENE 10.4 mph - N/A   Overcast
11:04 PM 30.2 °F 20.2 °F 28.4 °F 93% 30.19 in 3.0 mi ENE 12.7 mph - N/A   Overcast
11:53 PM 30.0 °F 20.5 °F 28.0 °F 92% 30.15 in 3.0 mi ENE 11.5 mph - N/A   Overcast